| time (UTC) | temp F | wind direction | speed MPH | gust MPH | rain 1hr in | rain 24hr in | rain mn in | humidity % | barometer mb |
| 20260903090523 | 71 | 0.0 | 0.0 | 0.00 | 0.00 | 0.00 | 98 | 1018.0 | |
| 20260903085523 | 71 | 0.0 | 0.0 | 0.00 | 0.00 | 0.00 | 98 | 1018.0 | |
| 20260903084523 | 71 | 0.0 | 0.0 | 0.00 | 0.00 | 0.00 | 98 | 1017.9 | |
| 20260903083523 | 71 | 0.0 | 0.0 | 0.00 | 0.00 | 0.00 | 98 | 1017.9 | |
| 20260903082523 | 71 | 0.0 | 0.0 | 0.00 | 0.00 | 0.00 | 98 | 1017.8 | |
| 20260903081543 | 72 | 0.0 | 0.0 | 0.00 | 0.00 | 0.00 | 98 | 1017.9 | |
| 20260903080523 | 72 | 0.0 | 0.0 | 0.00 | 0.00 | 0.00 | 98 | 1017.9 | |
| 20260903075523 | 72 | 0.0 | 0.0 | 0.00 | 0.00 | 0.00 | 98 | 1017.8 | |
| 20260903074544 | 72 | 0.0 | 0.0 | 0.00 | 0.00 | 0.00 | 98 | 1017.8 | |
| 20260903073523 | 72 | 0.0 | 0.0 | 0.00 | 0.00 | 0.00 | 98 | 1017.7 | |
| 20260903072523 | 72 | 0.0 | 0.0 | 0.00 | 0.00 | 0.00 | 98 | 1017.7 | |
| 20260903071523 | 72 | 0.0 | 0.0 | 0.00 | 0.00 | 0.00 | 97 | 1017.7 | |
| 20260903070523 | 72 | 0.0 | 0.0 | 0.00 | 0.00 | 0.00 | 97 | 1017.7 | |
| 20260903065544 | 72 | 0.0 | 0.0 | 0.00 | 0.00 | 0.00 | 97 | 1017.7 | |
| 20260903064524 | 73 | 0.0 | 0.0 | 0.00 | 0.00 | 0.00 | 97 | 1017.6 | |
| 20260903063544 | 73 | 0.0 | 0.0 | 0.00 | 0.00 | 0.00 | 97 | 1017.7 | |
| 20260903062523 | 73 | 0.0 | 0.0 | 0.00 | 0.00 | 0.00 | 97 | 1017.8 | |
| 20260903061523 | 73 | 0.0 | 0.0 | 0.00 | 0.00 | 0.00 | 97 | 1017.7 | |
| 20260903060544 | 73 | 0.0 | 0.0 | 0.00 | 0.00 | 0.00 | 97 | 1017.7 | |
| 20260903055524 | 74 | 0.0 | 0.0 | 0.00 | 0.00 | 0.00 | 97 | 1017.6 | |
| 20260903054523 | 74 | 0.0 | 0.0 | 0.00 | 0.00 | 0.00 | 98 | 1017.6 | |
| 20260903053534 | 74 | 0.0 | 0.0 | 0.00 | 0.00 | 0.00 | 97 | 1017.6 | |
| 20260903052544 | 74 | 0.0 | 0.0 | 0.00 | 0.00 | 0.00 | 97 | 1017.5 | |
| 20260903051523 | 73 | 0.0 | 0.0 | 0.00 | 0.00 | 0.00 | 97 | 1017.4 | |
| 20260903050523 | 74 | 0.0 | 0.0 | 0.00 | 0.00 | 0.00 | 97 | 1017.4 | |
| 20260903045524 | 74 | 0.0 | 0.0 | 0.00 | 0.00 | 0.00 | 97 | 1017.4 | |
| 20260903044523 | 74 | 0.0 | 0.0 | 0.00 | 0.00 | 0.00 | 97 | 1017.3 | |
| 20260903043524 | 74 | 0.0 | 0.0 | 0.00 | 0.00 | 0.00 | 97 | 1017.3 | |
| 20260903042523 | 74 | 0.0 | 0.0 | 0.00 | 0.00 | 0.00 | 97 | 1017.4 | |
| 20260903041524 | 74 | 0.0 | 0.0 | 0.00 | 0.00 | 0.00 | 97 | 1017.4 | |
| 20260903040524 | 75 | 0.0 | 0.0 | 0.00 | 0.00 | 0.00 | 97 | 1017.4 | |
| 20260903035523 | 75 | 0.0 | 0.0 | 0.00 | 0.00 | 0.00 | 96 | 1017.4 | |
| 20260903034534 | 75 | 0.0 | 0.0 | 0.00 | 0.00 | 0.00 | 96 | 1017.4 | |
| 20260903033524 | 75 | 0.0 | 0.0 | 0.00 | 0.00 | 0.00 | 96 | 1017.5 | |
| 20260903032534 | 75 | 0.0 | 0.0 | 0.00 | 0.00 | 0.00 | 96 | 1017.5 | |
| 20260903031524 | 75 | 0.0 | 0.0 | 0.00 | 0.00 | 0.00 | 96 | 1017.5 | |
| 20260903030524 | 75 | 0.0 | 0.0 | 0.00 | 0.00 | 0.00 | 96 | 1017.5 | |
| 20260903025524 | 76 | 0.0 | 0.0 | 0.00 | 0.00 | 0.00 | 95 | 1017.5 | |
| 20260903024524 | 76 | 0.0 | 0.0 | 0.00 | 0.00 | 0.00 | 95 | 1017.6 | |
| 20260903023523 | 76 | 0.0 | 0.0 | 0.00 | 0.00 | 0.00 | 95 | 1017.6 | |
| 20260903022523 | 76 | 0.0 | 0.0 | 0.00 | 0.00 | 0.00 | 94 | 1017.7 | |
| 20260903021524 | 77 | 0.0 | 0.0 | 0.00 | 0.00 | 0.00 | 94 | 1017.7 | |
| 20260903020544 | 77 | 0.0 | 0.0 | 0.00 | 0.00 | 0.00 | 94 | 1017.6 | |
| 20260903015524 | 77 | 0.0 | 0.0 | 0.00 | 0.00 | 0.00 | 93 | 1017.6 | |
| 20260903014524 | 77 | 0.0 | 0.0 | 0.00 | 0.00 | 0.00 | 93 | 1017.6 | |
| 20260903013524 | 78 | 0.0 | 0.0 | 0.00 | 0.00 | 0.00 | 92 | 1017.5 | |
| 20260903012534 | 78 | 0.0 | 0.0 | 0.00 | 0.00 | 0.00 | 91 | 1017.4 | |
| 20260903011555 | 78 | 108 | 0.0 | 1.0 | 0.00 | 0.00 | 0.00 | 92 | 1017.4 |
| 20260903010524 | 79 | 0.0 | 0.0 | 0.00 | 0.00 | 0.00 | 90 | 1017.2 | |
| 20260903005535 | 79 | 0.0 | 0.0 | 0.00 | 0.00 | 0.00 | 90 | 1017.2 | |
| 20260903004555 | 80 | 0.0 | 0.0 | 0.00 | 0.00 | 0.00 | 91 | 1017.1 | |
| 20260903003615 | 81 | 0.0 | 0.0 | 0.00 | 0.00 | 0.00 | 88 | 1017.0 | |
| 20260903002555 | 82 | 353 | 0.0 | 1.0 | 0.00 | 0.00 | 0.00 | 84 | 1017.0 |
| 20260903001514 | 83 | 0.0 | 0.0 | 0.00 | 0.00 | 0.00 | 81 | 1017.0 | |
| 20260903000534 | 84 | 0.0 | 1.0 | 0.00 | 0.00 | 0.00 | 80 | 1017.0 | |
| 20260902235554 | 85 | 0.0 | 0.0 | 0.00 | 0.00 | 0.00 | 77 | 1017.0 | |
| 20260902234524 | 86 | 250 | 1.0 | 2.0 | 0.00 | 0.00 | 0.00 | 75 | 1017.0 |
| 20260902233525 | 87 | 222 | 2.0 | 3.0 | 0.00 | 0.00 | 0.00 | 73 | 1017.0 |
| 20260902232524 | 89 | 215 | 3.0 | 3.0 | 0.00 | 0.00 | 0.00 | 71 | 1017.0 |
| 20260902231545 | 92 | 215 | 2.0 | 3.0 | 0.00 | 0.00 | 0.00 | 68 | 1017.1 |
| 20260902230524 | 93 | 0.0 | 0.0 | 0.00 | 0.00 | 0.00 | 66 | 1017.1 | |
| 20260902225524 | 93 | 0.0 | 0.0 | 0.00 | 0.00 | 0.00 | 65 | 1017.1 | |
| 20260902224524 | 93 | 0.0 | 0.0 | 0.00 | 0.00 | 0.00 | 66 | 1017.2 | |
| 20260902223524 | 92 | 0.0 | 0.0 | 0.00 | 0.00 | 0.00 | 66 | 1017.2 | |
| 20260902222525 | 92 | 250 | 0.0 | 2.0 | 0.00 | 0.00 | 0.00 | 66 | 1017.2 |
| 20260902221525 | 93 | 204 | 3.0 | 4.0 | 0.00 | 0.00 | 0.00 | 61 | 1017.3 |
| 20260902220524 | 94 | 209 | 4.0 | 6.0 | 0.00 | 0.00 | 0.00 | 58 | 1017.4 |
| 20260902215524 | 94 | 215 | 5.0 | 7.0 | 0.00 | 0.00 | 0.00 | 58 | 1017.4 |
| 20260902214544 | 94 | 207 | 6.0 | 9.0 | 0.00 | 0.00 | 0.00 | 58 | 1017.4 |
| 20260902213524 | 95 | 206 | 4.0 | 7.0 | 0.00 | 0.00 | 0.00 | 59 | 1017.4 |
| 20260902212657 | 91 | 213 | 4.0 | 5.0 | 0.00 | 0.00 | 0.00 | 61 | 1017.5 |
| 20260902211616 | 93 | 204 | 5.0 | 6.0 | 0.00 | 0.00 | 0.00 | 57 | 1017.5 |
| 20260902210555 | 94 | 207 | 6.0 | 8.0 | 0.00 | 0.00 | 0.00 | 57 | 1017.5 |
| 20260902205524 | 94 | 211 | 6.0 | 9.0 | 0.00 | 0.00 | 0.00 | 57 | 1017.6 |
| 20260902204524 | 94 | 197 | 5.0 | 7.0 | 0.00 | 0.00 | 0.00 | 58 | 1017.6 |
| 20260902203534 | 95 | 207 | 5.0 | 7.0 | 0.00 | 0.00 | 0.00 | 56 | 1017.8 |
| 20260902202545 | 96 | 214 | 4.0 | 6.0 | 0.00 | 0.00 | 0.00 | 55 | 1017.8 |
| 20260902201614 | 95 | 247 | 3.0 | 5.0 | 0.00 | 0.00 | 0.00 | 54 | 1017.9 |
| 20260902200545 | 94 | 255 | 4.0 | 8.0 | 0.00 | 0.00 | 0.00 | 57 | 1018.0 |
| 20260902195605 | 93 | 222 | 7.0 | 11.0 | 0.00 | 0.00 | 0.00 | 55 | 1018.1 |
| 20260902194544 | 94 | 211 | 5.0 | 7.0 | 0.00 | 0.00 | 0.00 | 56 | 1018.2 |
| 20260902193544 | 95 | 194 | 7.0 | 10.0 | 0.00 | 0.00 | 0.00 | 54 | 1018.3 |
| 20260902192625 | 94 | 199 | 4.0 | 7.0 | 0.00 | 0.00 | 0.00 | 59 | 1018.4 |
| 20260902191525 | 92 | 207 | 5.0 | 6.0 | 0.00 | 0.00 | 0.00 | 57 | 1018.5 |
| 20260902190644 | 93 | 214 | 7.0 | 9.0 | 0.00 | 0.00 | 0.00 | 57 | 1018.5 |
| 20260902185515 | 93 | 206 | 4.0 | 6.0 | 0.00 | 0.00 | 0.00 | 60 | 1018.6 |
| 20260902184604 | 93 | 193 | 6.0 | 9.0 | 0.00 | 0.00 | 0.00 | 59 | 1018.6 |
| 20260902183525 | 93 | 229 | 6.0 | 7.0 | 0.00 | 0.00 | 0.00 | 59 | 1018.6 |
| 20260902182524 | 93 | 240 | 5.0 | 9.0 | 0.00 | 0.00 | 0.00 | 57 | 1018.8 |
| 20260902181525 | 92 | 208 | 6.0 | 11.0 | 0.00 | 0.00 | 0.00 | 61 | 1018.8 |
| 20260902180545 | 92 | 221 | 7.0 | 9.0 | 0.00 | 0.00 | 0.00 | 60 | 1018.9 |
| 20260902175525 | 92 | 191 | 6.0 | 8.0 | 0.00 | 0.00 | 0.00 | 62 | 1019.0 |
| 20260902174535 | 92 | 192 | 6.0 | 8.0 | 0.00 | 0.00 | 0.00 | 62 | 1019.1 |
| 20260902173524 | 92 | 215 | 6.0 | 11.0 | 0.00 | 0.00 | 0.00 | 61 | 1019.3 |
| 20260902172615 | 93 | 228 | 4.0 | 8.0 | 0.00 | 0.00 | 0.00 | 61 | 1019.3 |
| 20260902171525 | 93 | 187 | 6.0 | 11.0 | 0.00 | 0.00 | 0.00 | 60 | 1019.4 |
| 20260902170515 | 92 | 200 | 5.0 | 6.0 | 0.00 | 0.00 | 0.00 | 65 | 1019.5 |
| 20260902165525 | 91 | 219 | 6.0 | 10.0 | 0.00 | 0.00 | 0.00 | 64 | 1019.6 |
| 20260902164524 | 91 | 197 | 6.0 | 9.0 | 0.00 | 0.00 | 0.00 | 64 | 1019.7 |
| 20260902163525 | 91 | 211 | 5.0 | 8.0 | 0.00 | 0.00 | 0.00 | 65 | 1019.7 |
| 20260902162526 | 91 | 224 | 5.0 | 8.0 | 0.00 | 0.00 | 0.00 | 65 | 1019.8 |
| 20260902161524 | 91 | 230 | 4.0 | 8.0 | 0.00 | 0.00 | 0.00 | 66 | 1019.8 |
| 20260902160545 | 90 | 206 | 7.0 | 9.0 | 0.00 | 0.00 | 0.00 | 67 | 1019.8 |
| 20260902155525 | 90 | 207 | 6.0 | 7.0 | 0.00 | 0.00 | 0.00 | 69 | 1019.8 |
| 20260902154525 | 89 | 209 | 5.0 | 7.0 | 0.00 | 0.00 | 0.00 | 68 | 1019.8 |
| 20260902153525 | 89 | 222 | 6.0 | 8.0 | 0.00 | 0.00 | 0.00 | 69 | 1019.8 |
| 20260902152525 | 89 | 216 | 5.0 | 7.0 | 0.00 | 0.00 | 0.00 | 70 | 1019.9 |
| 20260902151525 | 89 | 220 | 4.0 | 6.0 | 0.00 | 0.00 | 0.00 | 69 | 1019.9 |
| 20260902150525 | 88 | 214 | 5.0 | 7.0 | 0.00 | 0.00 | 0.00 | 71 | 1020.0 |
| 20260902145525 | 88 | 211 | 5.0 | 7.0 | 0.00 | 0.00 | 0.00 | 70 | 1020.0 |
| 20260902144525 | 87 | 218 | 3.0 | 6.0 | 0.00 | 0.00 | 0.00 | 71 | 1020.1 |
| 20260902143525 | 86 | 206 | 4.0 | 7.0 | 0.00 | 0.00 | 0.00 | 73 | 1020.0 |
| 20260902142535 | 86 | 207 | 4.0 | 7.0 | 0.00 | 0.00 | 0.00 | 75 | 1020.0 |
| 20260902141525 | 85 | 217 | 4.0 | 6.0 | 0.00 | 0.00 | 0.00 | 75 | 1020.0 |
| 20260902140525 | 85 | 210 | 4.0 | 6.0 | 0.00 | 0.00 | 0.00 | 78 | 1019.9 |
| 20260902135525 | 84 | 209 | 3.0 | 5.0 | 0.00 | 0.00 | 0.00 | 78 | 1020.0 |
| 20260902134525 | 83 | 210 | 3.0 | 4.0 | 0.00 | 0.00 | 0.00 | 78 | 1020.1 |
| 20260902133545 | 82 | 205 | 3.0 | 4.0 | 0.00 | 0.00 | 0.00 | 81 | 1020.1 |
| 20260902132535 | 81 | 212 | 4.0 | 6.0 | 0.00 | 0.00 | 0.00 | 82 | 1020.1 |
| 20260902131525 | 81 | 202 | 3.0 | 5.0 | 0.00 | 0.00 | 0.00 | 82 | 1020.1 |
| 20260902130545 | 80 | 203 | 2.0 | 3.0 | 0.00 | 0.00 | 0.00 | 84 | 1020.0 |
| 20260902125525 | 78 | 0.0 | 0.0 | 0.00 | 0.00 | 0.00 | 91 | 1020.0 | |
| 20260902124526 | 76 | 0.0 | 0.0 | 0.00 | 0.00 | 0.00 | 96 | 1020.1 | |
| 20260902123525 | 74 | 0.0 | 0.0 | 0.00 | 0.00 | 0.00 | 97 | 1020.1 | |
| 20260902122526 | 74 | 0.0 | 0.0 | 0.00 | 0.00 | 0.00 | 98 | 1020.0 | |
| 20260902121525 | 73 | 0.0 | 0.0 | 0.00 | 0.00 | 0.00 | 99 | 1019.9 | |
| 20260902120525 | 71 | 0.0 | 0.0 | 0.00 | 0.00 | 0.00 | 99 | 1019.8 | |
| 20260902115526 | 70 | 0.0 | 0.0 | 0.00 | 0.00 | 0.00 | 99 | 1019.6 | |
| 20260902114525 | 69 | 0.0 | 0.0 | 0.00 | 0.00 | 0.00 | 99 | 1019.5 | |
| 20260902113526 | 69 | 0.0 | 0.0 | 0.00 | 0.00 | 0.00 | 99 | 1019.4 | |
| 20260902112525 | 69 | 0.0 | 0.0 | 0.00 | 0.00 | 0.00 | 99 | 1019.3 | |
| 20260902111525 | 69 | 0.0 | 0.0 | 0.00 | 0.00 | 0.00 | 99 | 1019.2 | |
| 20260902110525 | 69 | 0.0 | 0.0 | 0.00 | 0.00 | 0.00 | 99 | 1019.2 | |
| 20260902105526 | 69 | 0.0 | 0.0 | 0.00 | 0.00 | 0.00 | 99 | 1019.2 | |
| 20260902104626 | 69 | 0.0 | 0.0 | 0.00 | 0.00 | 0.00 | 99 | 1019.2 | |
| 20260902103526 | 69 | 0.0 | 0.0 | 0.00 | 0.00 | 0.00 | 99 | 1019.1 | |
| 20260902102545 | 69 | 0.0 | 0.0 | 0.00 | 0.00 | 0.00 | 99 | 1019.1 | |
| 20260902101605 | 69 | 0.0 | 0.0 | 0.00 | 0.00 | 0.00 | 99 | 1019.1 | |
| 20260902100526 | 69 | 0.0 | 0.0 | 0.00 | 0.00 | 0.00 | 99 | 1019.1 | |
| 20260902095525 | 69 | 0.0 | 0.0 | 0.00 | 0.00 | 0.00 | 99 | 1019.0 | |
| 20260902094525 | 69 | 0.0 | 0.0 | 0.00 | 0.00 | 0.00 | 99 | 1018.9 | |
| 20260902093526 | 69 | 0.0 | 0.0 | 0.00 | 0.00 | 0.00 | 99 | 1018.9 | |
| 20260902092525 | 69 | 0.0 | 0.0 | 0.00 | 0.00 | 0.00 | 99 | 1018.9 | |
| 20260902091526 | 70 | 0.0 | 0.0 | 0.00 | 0.00 | 0.00 | 99 | 1018.9 |